Location: Sungai Liu
(2.3667°N, 113.8667°E)
Time: 12:46:37
(UTC+00:00)

USA 229 DEB - Pass Details

Date: 20 May 2022
Orbit: 934 x 1278 km, 63.4° (Epoch: 24 May)

Event Time Altitude Azimuth Distance (km) Brightness Sun altitude
Rises 19:56:32 0° 339° (NNW) 4,170 6.9 -32.6°
Reaches altitude 10° 19:59:17 10° 341° (NNW) 3,230 6.2 -32.0°
Maximum altitude 20:07:11 80° 67° (ENE) 1,296 4.0 -30.2°
Drops below altitude 10° 20:15:08 10° 154° (SSE) 3,244 6.2 -28.4°
Sets 20:17:54 0° 154° (SSE) 4,189 6.8 -27.8°
